Weather History for Pompano Beach, FL

Change the Weather History Date:

Tuesday, November 1, 2011

  Actual Average Record
Temperature  
Mean Temperature 76 °F -  
Max Temperature 82 °F 85 °F 95 °F (1983)
Min Temperature 70 °F 68 °F 48 °F (1993)
Cooling Degree Days 11    
Growing Degree Days 26 (Base 50)    
Moisture  
Dew Point 69 °F    
Average Humidity 81    
Maximum Humidity 93    
Minimum Humidity 62    
Precipitation  
Precipitation 0.01 in - - ()
Sea Level Pressure  
Sea Level Pressure 30.04 in    
Wind  
Wind Speed 13 mph (NNE)    
Max Wind Speed 23 mph    
Max Gust Speed 33 mph    
Visibility 10 miles    
Events Rain    
Averages and records for this station are not official NWS values.
T = Trace of Precipitation, MM = Missing Value Source: NWS Daily Summary

Daily Weather History Graph

Daily Weather History Graph

Search for Another Location

Airport:

Trip Planner

Search our weather history database for the weather conditions in past years. The results will help you decide how hot, cold, wet, or windy it might be!

Date:

Astronomy

Nov. 01, 2011 Rise Set
Actual Time 7:29 AM EDT 6:38 PM EDT
Civil Twilight 7:05 AM EDT 7:02 PM EDT
Nautical Twilight 6:38 AM EDT 7:29 PM EDT
Astronomical Twilight 6:10 AM EDT 7:56 PM EDT
Moon 1:08 PM EDT (11/1) No Moon Set
Length of Visible Light 11h 56m
Length of Day
11h 09m
Waxing Crescent, 39% of the Moon is Illuminated
Nov 1
Waxing Crescent
Nov 2
First Quarter
Nov 10
Full
Nov 18
Last Quarter
Nov 25
New

Hourly Weather History & Observations

Time (EDT) Temp. Heat Index Dew Point Humidity Pressure Visibility Wind Dir Wind Speed Gust Speed Precip Events Conditions
12:53 AM 71.1 °F - 68.0 °F 90% 30.00 in 10.0 mi NW 8.1 mph - N/A   Scattered Clouds
1:53 AM 70.0 °F - 68.0 °F 93% 29.99 in 10.0 mi NNW 8.1 mph - N/A   Partly Cloudy
2:53 AM 70.0 °F - 68.0 °F 93% 29.99 in 10.0 mi NNW 9.2 mph - N/A   Clear
3:53 AM 70.0 °F - 68.0 °F 93% 29.98 in 10.0 mi NNW 8.1 mph - N/A   Clear
4:53 AM 70.0 °F - 68.0 °F 93% 29.98 in 10.0 mi NNW 10.4 mph - N/A   Clear
5:53 AM 70.0 °F - 68.0 °F 93% 30.00 in 10.0 mi NNW 9.2 mph - N/A   Clear
6:53 AM 70.0 °F - 68.0 °F 93% 30.01 in 10.0 mi NNW 10.4 mph - N/A   Partly Cloudy
7:53 AM 71.1 °F - 69.1 °F 93% 30.02 in 10.0 mi North 9.2 mph - N/A   Mostly Cloudy
10:53 AM 78.1 °F - 70.0 °F 76% 30.06 in 10.0 mi ENE 11.5 mph - N/A   Overcast
11:53 AM 82.0 °F 84.9 °F 68.0 °F 62% 30.06 in 10.0 mi ENE 18.4 mph 24.2 mph N/A   Mostly Cloudy
1:53 PM 82.0 °F 85.5 °F 69.1 °F 65% 30.03 in 10.0 mi NE 18.4 mph 26.5 mph 0.00 in   Mostly Cloudy
3:53 PM 78.1 °F - 71.1 °F 79% 30.02 in 9.0 mi NE 18.4 mph 33.4 mph 0.00 in Rain Light Rain
4:53 PM 78.1 °F - 69.1 °F 74% 30.03 in 10.0 mi NNE 18.4 mph - 0.00 in   Mostly Cloudy
5:53 PM 77.0 °F - 69.1 °F 76% 30.04 in 10.0 mi NNE 18.4 mph 27.6 mph 0.00 in   Mostly Cloudy
5:54 PM 77.0 °F - 69.8 °F 78% 30.03 in 10.0 mi NNE 19.6 mph 27.6 mph N/A   Mostly Cloudy
6:23 PM 77.0 °F - 68.0 °F 74% 30.04 in 10.0 mi NE 23.0 mph 29.9 mph N/A   Overcast
6:41 PM 77.0 °F - 68.0 °F 74% 30.04 in 10.0 mi NNE 18.4 mph 27.6 mph 0.00 in Rain Light Rain
6:53 PM 75.9 °F - 69.1 °F 79% 30.05 in 10.0 mi NE 20.7 mph 29.9 mph 0.00 in Rain Light Rain
7:04 PM 75.2 °F - 69.8 °F 83% 30.05 in 10.0 mi NNE 20.7 mph 29.9 mph 0.00 in   Overcast
7:33 PM 75.2 °F - 69.8 °F 83% 30.05 in 10.0 mi NNE 19.6 mph 26.5 mph 0.01 in   Overcast
7:53 PM 75.9 °F - 68.0 °F 76% 30.06 in 10.0 mi NNE 18.4 mph 27.6 mph 0.01 in   Overcast
8:53 PM 75.9 °F - 68.0 °F 76% 30.08 in 10.0 mi NE 21.9 mph 28.8 mph 0.00 in   Overcast
9:01 PM 75.2 °F - 68.0 °F 78% 30.08 in 10.0 mi NE 19.6 mph 31.1 mph N/A   Overcast
9:53 PM 75.0 °F - 68.0 °F 79% 30.09 in 10.0 mi NE 20.7 mph 31.1 mph 0.00 in Rain Light Rain
10:53 PM 75.9 °F - 68.0 °F 76% 30.09 in 10.0 mi NE 19.6 mph 29.9 mph N/A   Overcast
11:53 PM 75.0 °F - 68.0 °F 79% 30.09 in 10.0 mi NE 18.4 mph 28.8 mph N/A   Mostly Cloudy